GFSSGP_925_spd_150.txt.gz
Wind_Speed
3 3 2 4 6 6 15 8 4 6 6 3 12 7 10 6 3 1 6 12 14 13 11 11 12 12 11 10 8 7 6 6 7 6 6 5 5 4 5 4 3 3 3 4 4 4 5 4 4
3 2 3 2 8 12 14 16 11 9 4 10 11 8 7 5 5 9 10 13 14 14 14 14 15 13 12 11 9 9 7 5 4 4 3 3 4 5 5 5 3 3 4 4 4 5 5 5 5
2 3 4 5 9 16 12 11 15 8 12 12 8 2 3 7 10 8 11 17 14 13 13 12 11 10 10 9 8 6 5 4 4 3 2 3 5 5 5 5 4 4 5 5 5 5 5 5 5
5 5 3 9 18 19 16 3 11 15 7 8 5 7 5 4 13 10 19 17 15 13 12 12 10 9 8 7 6 5 4 3 1 1 3 4 4 4 5 4 4 4 4 5 5 5 5 5 5
5 3 10 14 20 17 15 2 12 16 13 12 11 8 6 4 10 19 19 16 15 14 12 11 9 8 7 5 4 4 3 1 2 3 4 4 5 5 4 4 4 5 5 6 6 6 6 6 6
6 4 10 19 21 19 10 8 13 14 12 11 7 14 7 9 16 18 15 15 13 12 11 10 9 7 6 5 4 4 2 3 3 4 4 4 4 4 4 3 4 5 5 5 6 7 7 7 7
11 9 18 17 19 21 13 12 14 15 12 11 10 11 7 15 17 18 15 14 13 10 10 8 8 7 6 6 5 5 5 4 4 4 4 4 4 3 3 3 4 4 5 5 5 5 6 5 5
9 5 19 14 19 22 12 14 10 14 12 5 6 8 8 21 20 19 16 14 12 10 9 8 7 7 6 6 5 5 5 4 4 4 5 5 5 4 4 4 4 4 4 4 4 4 4 4 4
7 9 16 22 17 20 11 12 6 3 11 5 4 2 7 28 23 20 17 13 12 9 8 8 7 7 6 6 5 5 4 5 6 6 7 6 4 4 5 4 3 3 4 4 4 4 4 4 6
13 14 19 10 8 10 13 15 15 10 12 6 7 8 26 27 24 21 18 15 13 11 9 8 8 7 6 5 4 5 5 5 6 6 6 5 5 5 4 5 5 5 4 5 5 5 5 5 4
14 18 16 5 9 6 13 12 12 11 13 13 16 19 24 27 23 20 17 15 14 11 9 8 8 7 5 5 4 4 4 4 5 6 7 6 5 5 5 5 5 5 7 6 6 6 5 4 4
14 19 12 10 2 4 11 9 9 16 3 6 15 22 25 21 21 20 18 15 14 11 9 9 7 6 6 5 4 4 4 4 4 6 7 6 5 5 5 5 5 6 6 6 6 5 5 5 4
20 11 20 9 6 8 7 12 11 10 2 6 19 22 23 20 21 18 16 14 13 11 9 8 7 6 5 5 4 4 4 4 4 5 6 6 5 5 5 5 5 6 6 6 6 6 6 5 4
16 17 14 13 7 6 11 9 8 4 5 13 19 22 21 20 21 18 16 15 14 12 10 9 7 6 5 4 4 4 4 4 4 5 6 5 4 4 5 5 6 6 7 6 6 5 6 5 4
11 21 8 15 7 6 9 9 12 6 12 15 17 19 20 20 20 18 16 15 14 12 11 8 7 6 5 4 3 3 3 3 4 5 5 5 5 5 5 5 6 7 7 7 6 6 7 5 5
12 19 14 16 9 5 13 18 7 11 15 16 17 18 17 18 19 17 15 14 13 13 12 9 7 5 4 3 3 2 2 2 3 3 3 4 5 5 5 5 6 7 7 7 6 7 6 6 6
15 13 22 10 10 5 12 13 9 11 13 15 16 17 16 15 16 16 15 14 13 13 12 10 8 5 4 2 2 2 1 1 1 2 3 4 4 4 4 5 5 6 7 7 6 6 5 4 4
18 17 20 13 10 10 15 5 12 13 14 16 16 16 15 15 15 16 15 13 14 13 11 10 8 6 4 3 3 2 1 0 1 1 2 3 3 4 4 4 5 6 6 6 7 6 6 3 3
20 19 21 8 5 12 16 9 13 13 12 14 15 15 15 14 14 14 15 13 13 12 12 11 9 8 5 3 2 2 1 1 2 1 1 2 3 3 3 3 4 5 5 6 7 4 3 3 1
16 17 16 7 6 6 12 11 10 12 14 15 16 15 14 13 11 14 14 15 15 14 14 11 10 8 5 3 3 1 0 1 2 2 1 0 1 1 2 2 4 4 4 5 6 5 2 1 2
15 18 14 14 9 5 15 8 10 10 7 9 11 12 13 14 13 12 16 17 15 16 15 13 11 9 7 5 4 1 2 2 2 3 2 2 2 2 1 2 2 3 3 3 4 4 3 3 2
12 8 13 17 17 10 4 10 12 13 12 11 13 13 13 12 11 11 16 17 18 17 14 13 12 10 7 7 4 4 2 3 3 3 3 3 5 5 5 4 4 4 4 3 3 3 3 2 4
5 9 11 16 13 11 8 3 11 10 15 16 15 15 13 12 12 12 15 16 15 15 15 14 12 10 9 7 6 5 4 5 5 4 4 6 6 7 8 7 7 6 6 6 5 4 4 4 4
12 10 6 5 5 8 6 3 9 10 15 17 15 15 13 11 11 9 10 11 12 12 14 13 12 10 9 8 8 7 7 6 5 5 6 6 6 7 9 10 9 9 9 9 8 8 8 7 6
3 13 3 4 2 7 0 4 4 9 5 4 12 13 11 11 10 8 8 10 11 13 13 13 12 11 9 10 10 9 9 8 8 6 6 7 8 8 9 10 11 11 11 12 11 11 10 9 9
7 5 3 5 7 5 1 6 4 3 2 2 3 7 9 10 9 8 8 8 9 10 12 11 11 10 9 10 10 10 10 9 8 7 8 9 9 10 9 11 12 13 13 14 13 14 14 13 14
5 5 2 5 2 4 3 3 4 4 4 5 8 10 11 11 10 9 10 9 9 8 8 9 9 8 8 8 8 9 9 9 8 8 9 9 9 10 11 12 14 14 15 16 15 16 16 15 16
2 6 3 1 5 6 3 3 3 11 12 10 10 12 12 10 10 9 9 9 8 8 6 6 6 6 5 7 8 8 7 6 7 7 8 9 10 11 12 13 14 16 16 17 17 18 17 18 18
3 3 4 1 2 4 5 6 1 5 13 14 12 12 12 12 10 9 10 9 9 8 8 7 6 4 2 3 4 4 4 4 5 7 7 8 10 10 12 12 13 14 15 15 16 18 19 20 21
1 0 1 1 3 1 3 3 1 1 9 12 13 12 11 11 11 9 11 11 10 8 7 6 5 4 4 4 4 3 2 1 2 4 5 7 8 9 10 11 13 14 15 15 17 20 20 22 23

GFSSGP_925_spd_153.txt.gz
Wind_Speed
5 4 4 5 6 7 17 17 17 4 6 4 6 9 10 11 3 2 9 11 16 15 14 13 13 11 10 8 8 8 7 7 7 7 6 5 5 5 5 4 3 3 4 4 4 5 5 5 4
5 4 6 6 8 14 15 19 12 9 2 8 7 2 8 5 8 12 11 16 14 17 16 16 16 14 11 10 9 7 6 5 4 3 3 3 4 4 4 4 3 3 4 4 5 5 5 5 5
4 5 5 5 11 18 15 19 19 10 9 12 8 5 3 5 12 13 14 15 18 18 17 16 14 12 10 9 8 6 5 4 3 2 2 3 4 4 4 4 3 4 4 5 5 5 5 5 5
5 6 5 11 21 21 22 11 4 12 9 13 10 7 6 7 14 13 18 16 17 15 14 13 12 11 9 8 6 5 3 2 1 2 3 3 4 4 4 4 4 4 5 5 5 5 5 5 5
8 6 12 18 24 21 21 11 7 13 14 14 12 9 8 6 14 20 19 16 17 16 14 13 12 10 8 6 6 5 2 2 2 3 3 4 4 4 4 5 5 5 5 5 6 6 6 6 6
7 8 12 21 23 24 18 17 8 14 16 15 12 13 6 14 17 18 18 17 16 16 14 12 11 10 8 6 5 4 2 3 2 3 4 4 4 5 5 4 5 5 5 5 5 6 6 5 5
15 12 20 22 24 23 22 13 15 15 14 12 7 14 8 16 17 21 16 16 14 14 13 11 10 8 5 6 5 4 4 3 4 4 5 5 6 6 5 5 5 4 4 4 5 5 5 5 5
11 14 25 24 19 26 20 17 16 16 14 6 11 8 7 19 21 19 17 15 13 12 12 11 10 8 7 6 5 4 4 4 5 6 6 6 8 9 8 5 5 4 4 5 5 5 4 4 5
11 12 18 25 26 17 19 19 12 9 10 8 7 5 9 29 23 21 18 14 13 11 10 9 9 8 7 6 5 6 6 8 10 10 10 9 4 4 4 6 5 5 5 5 5 5 5 5 5
15 15 24 20 22 17 21 16 15 8 12 11 9 4 29 28 24 23 20 17 14 12 11 9 8 7 6 5 4 3 4 4 5 6 6 5 5 5 3 7 8 8 7 9 8 8 7 7 4
19 21 18 24 13 10 12 16 17 16 19 15 19 20 23 28 25 21 20 17 16 13 10 10 9 7 6 5 4 2 3 4 4 6 6 5 4 4 4 4 5 5 8 5 6 6 5 6 5
20 23 24 22 4 8 15 15 19 17 6 10 18 22 22 23 21 22 20 18 16 14 12 10 8 8 6 5 4 3 3 3 4 5 6 5 4 5 5 5 5 5 6 6 6 6 6 6 5
12 24 20 25 15 10 15 17 15 18 5 1 20 22 23 21 23 21 19 17 16 14 12 11 9 7 6 6 4 3 3 3 4 4 6 5 5 5 4 5 5 6 7 7 7 7 7 6 5
9 17 23 22 20 15 14 16 14 13 6 10 19 21 22 21 24 22 20 19 16 14 12 11 9 8 6 6 5 3 3 3 3 4 5 5 4 4 5 5 6 7 7 7 7 7 7 6 5
19 20 23 20 24 16 13 18 15 8 11 16 17 19 20 20 23 21 20 19 17 14 13 11 9 8 7 6 5 3 2 3 2 3 4 5 5 4 4 5 5 6 7 6 6 6 5 4 5
8 17 18 26 24 17 12 20 19 12 15 17 18 17 18 19 21 20 19 18 16 15 13 11 8 7 6 6 4 3 2 2 2 3 4 5 4 4 3 4 5 6 6 7 6 6 5 4 4
7 10 26 26 24 17 16 14 19 14 15 17 17 18 17 18 19 19 18 17 16 14 14 12 9 7 6 6 4 3 2 2 2 3 3 3 3 4 4 4 4 5 5 6 6 5 4 2 2
10 15 23 23 21 22 16 14 12 15 16 17 18 18 18 17 16 18 17 15 14 13 13 12 9 8 6 5 4 3 2 1 1 2 2 3 2 3 3 3 4 4 4 5 5 3 3 1 1
17 22 24 24 18 22 18 18 12 14 15 17 18 18 18 16 16 17 16 14 14 13 13 12 11 8 6 5 3 2 2 1 0 0 1 1 1 1 2 2 3 3 3 4 4 3 2 2 2
20 22 21 22 12 21 19 17 12 15 16 17 20 20 19 17 16 16 17 16 15 14 13 12 10 8 7 5 3 2 2 1 1 1 1 1 2 1 1 1 1 2 2 3 3 4 3 2 3
15 22 19 13 13 21 18 16 12 12 13 14 15 16 17 18 17 15 18 18 16 15 15 13 11 10 8 6 5 3 1 1 1 2 2 4 4 4 2 2 2 2 1 2 3 3 4 4 3
11 18 18 18 17 14 19 11 16 17 15 14 14 15 16 17 15 15 18 18 18 16 14 13 12 10 8 7 6 5 2 2 1 2 4 5 6 6 5 5 5 4 3 3 3 3 2 3 5
4 1 16 19 20 16 20 6 17 18 17 18 17 16 16 15 14 15 17 18 17 16 16 14 12 11 9 9 7 5 5 3 3 4 5 8 7 7 7 7 6 6 5 5 5 5 4 4 5
7 6 1 15 13 9 19 11 17 17 19 18 18 18 16 15 15 13 16 15 16 15 15 14 13 12 11 9 8 7 6 5 4 4 6 8 7 7 8 8 8 7 7 7 7 7 7 7 8
9 11 4 6 5 9 6 5 4 19 18 21 20 19 17 15 14 13 12 15 15 15 15 15 14 13 12 10 8 9 7 7 6 6 7 7 7 7 7 8 8 8 9 10 10 10 11 11 11
9 8 4 6 6 6 3 8 6 11 5 5 11 16 15 14 12 12 12 13 14 14 15 14 14 14 12 10 10 9 8 7 6 7 8 7 6 6 7 8 10 11 11 12 12 13 14 14 15
5 5 3 4 4 8 7 5 6 8 7 9 11 12 13 14 12 11 12 12 12 12 13 13 13 11 11 9 8 8 8 7 6 7 7 6 6 7 8 9 11 11 11 12 12 15 15 15 17
2 5 2 3 5 9 7 12 4 11 12 12 13 14 14 13 13 11 12 12 11 12 11 10 9 9 7 7 7 6 7 6 6 7 7 6 7 8 9 9 10 11 11 12 13 16 17 18 19
3 4 3 4 3 2 8 9 5 9 13 14 13 14 14 14 13 11 12 13 12 11 10 9 8 7 5 4 5 5 5 5 6 6 4 5 6 7 8 9 10 11 12 13 15 17 19 20 21
6 7 9 3 2 1 3 4 2 4 11 12 13 14 14 13 12 11 13 14 13 12 11 9 8 7 6 5 4 3 3 3 2 1 2 3 5 6 7 8 9 11 11 12 14 17 18 20 22

GFSSGP_925_spd_156.txt.gz
Wind_Speed
8 10 9 6 2 4 9 8 11 2 1 3 4 4 4 9 4 4 7 20 26 23 18 16 16 15 12 10 10 10 9 9 8 6 5 5 5 6 5 5 4 4 5 5 5 5 4 4 4
7 7 5 4 4 8 8 13 14 7 4 8 4 5 4 5 6 8 9 18 22 21 21 17 16 15 14 13 11 9 7 6 5 4 5 6 6 6 5 5 5 5 5 5 4 4 4 4 4
6 5 2 4 5 13 7 11 12 6 10 7 4 6 5 5 10 6 20 22 25 25 22 21 19 16 14 12 10 8 7 5 4 3 4 5 6 7 7 5 4 4 4 5 5 5 5 5 5
6 3 4 6 14 13 16 11 6 10 5 7 9 7 5 3 14 16 21 22 23 20 20 18 17 15 13 11 9 7 5 4 3 3 3 3 5 5 5 5 4 3 3 3 4 4 4 4 4
8 4 5 9 16 16 14 22 2 5 11 7 10 6 5 11 18 24 22 21 21 18 17 17 16 14 12 10 8 6 4 3 2 2 3 4 4 5 4 4 4 4 4 3 3 4 4 4 4
4 3 7 14 15 16 18 15 5 7 9 7 6 8 4 19 20 22 21 20 20 21 16 16 15 13 11 9 6 5 4 3 3 4 5 5 5 6 5 4 4 5 5 4 4 4 4 4 5
7 8 13 15 12 20 18 20 6 6 7 10 5 8 6 12 19 25 16 22 23 16 13 13 14 12 9 7 6 6 5 6 6 6 6 6 8 8 6 6 5 5 5 5 5 5 5 5 6
8 6 15 16 15 18 17 19 11 8 9 8 10 7 7 15 26 19 20 18 18 16 15 11 12 9 8 9 8 7 7 8 8 10 10 10 9 10 10 5 7 6 6 7 7 6 6 5 6
8 9 13 17 17 14 18 11 9 2 2 2 5 5 18 34 26 23 21 18 17 15 14 14 14 14 8 8 9 9 9 11 11 10 11 9 6 2 6 10 9 9 8 9 9 8 7 7 6
8 8 17 13 16 15 20 18 10 3 3 2 8 21 30 31 23 22 19 19 18 17 14 13 12 11 11 7 8 7 7 7 7 7 7 6 6 8 7 10 11 11 11 10 11 11 10 9 9
9 18 14 15 21 18 14 14 10 10 8 8 10 20 20 23 21 21 20 20 21 19 15 13 12 11 10 9 8 7 5 6 5 7 7 7 5 5 6 8 7 8 6 9 7 10 7 8 7
15 17 17 20 20 13 9 11 10 7 7 5 15 22 18 19 18 21 21 23 23 20 16 13 12 12 9 11 8 7 6 6 5 7 8 7 5 6 6 6 6 6 8 7 8 7 6 8 6
17 20 18 16 23 18 16 10 11 18 5 5 21 22 19 17 20 21 22 23 22 21 18 14 12 11 12 9 9 8 8 7 6 4 6 6 5 5 7 6 6 7 6 8 7 7 6 8 6
9 14 16 18 21 17 19 13 7 13 8 7 20 19 18 18 22 21 23 23 22 21 19 17 13 11 11 10 9 9 6 8 5 4 5 6 5 6 4 5 5 5 5 7 7 7 7 5 4
9 13 13 15 15 18 16 17 13 13 4 15 15 16 16 16 22 19 23 22 23 21 20 17 15 12 11 9 8 6 6 7 4 4 4 6 4 5 5 4 3 4 5 4 6 4 6 1 5
1 3 6 10 13 17 16 17 9 11 8 11 12 14 15 14 18 23 24 23 23 23 20 17 14 12 11 8 8 5 7 6 5 3 2 4 3 5 4 3 4 5 5 5 6 5 6 3 4
3 5 8 13 16 11 19 14 21 10 11 10 12 14 15 13 14 23 25 24 23 22 21 17 14 13 11 9 8 6 5 6 3 2 1 3 2 5 3 1 3 5 5 5 5 5 3 4 3
6 6 8 12 6 21 23 19 19 17 17 14 13 14 14 14 11 23 24 23 22 21 19 17 15 12 11 10 7 6 3 5 4 2 2 4 0 4 4 2 4 3 3 4 4 3 4 3 4
10 11 13 14 12 14 27 21 11 9 9 14 14 14 13 14 13 24 24 22 22 22 20 17 16 13 11 10 8 7 6 5 2 3 3 2 1 2 3 1 2 2 4 5 6 5 5 4 6
14 16 20 17 16 15 24 20 13 11 11 13 15 15 15 14 13 16 24 22 21 21 20 18 15 14 11 10 8 8 8 5 5 5 3 2 1 1 1 1 2 3 2 5 5 6 5 4 6
13 15 14 13 15 24 18 18 13 10 8 11 14 14 14 16 16 14 18 22 21 21 21 19 16 15 13 12 10 8 6 5 4 3 3 3 3 2 2 2 2 3 3 3 5 5 4 4 3
9 17 22 15 16 7 14 6 10 11 10 10 14 15 16 16 11 12 16 21 24 22 20 19 17 16 14 11 9 8 5 5 5 5 4 4 4 4 4 5 5 4 4 3 4 5 4 4 4
9 5 12 14 12 6 10 5 9 13 12 12 9 13 15 15 15 14 15 21 24 21 22 19 19 16 13 12 9 8 6 5 4 3 4 4 6 6 6 7 7 7 6 5 6 7 6 6 7
13 6 3 3 7 6 8 11 12 16 20 11 8 10 13 13 12 12 21 23 22 21 21 20 19 17 15 12 10 9 8 6 5 3 4 3 5 6 8 8 9 9 8 9 9 9 10 9 10
12 9 2 3 1 4 6 11 6 16 20 17 17 11 10 11 10 10 12 18 23 24 23 21 20 19 16 12 10 9 9 7 5 5 4 4 4 6 8 10 11 9 9 10 11 12 13 12 14
6 3 1 2 4 3 5 6 3 4 7 20 20 17 11 11 10 9 10 18 23 24 22 21 21 17 15 12 10 10 8 7 6 4 5 6 5 7 8 10 11 11 11 12 14 15 15 15 17
1 3 4 4 2 3 4 2 3 5 8 5 18 15 12 11 10 10 12 17 19 22 21 20 18 15 14 12 10 8 7 7 5 4 5 5 6 8 9 9 9 10 11 13 14 16 17 17 19
2 5 3 3 4 5 4 5 5 6 6 3 9 12 10 9 10 9 9 18 17 18 18 16 15 15 13 11 9 8 7 5 4 5 5 5 7 8 9 9 9 10 11 13 14 16 18 19 20
2 1 2 1 1 1 4 4 5 8 11 11 7 8 10 10 10 8 10 19 19 18 17 16 14 13 12 9 8 8 7 7 6 4 4 4 6 6 7 7 8 9 11 12 14 16 18 21 23
2 2 2 1 5 4 3 1 5 3 9 10 9 10 9 9 9 9 13 19 19 19 18 16 15 13 10 9 9 8 8 6 4 3 3 4 3 3 4 6 8 8 9 11 13 15 16 19 22

GFSSGP_925_spd_159.txt.gz
Wind_Speed
9 8 10 3 2 3 4 8 5 8 4 1 2 5 7 5 2 5 9 24 26 26 23 20 19 18 15 13 12 12 10 10 9 8 7 7 6 7 7 5 5 5 4 4 4 4 4 4 4
8 8 2 2 3 3 5 6 9 7 4 3 8 4 7 3 3 8 11 25 26 26 22 20 19 17 16 15 14 12 10 8 7 6 7 7 7 7 7 6 6 5 5 5 4 4 4 4 4
9 8 2 4 4 7 5 6 10 13 8 3 5 7 4 4 4 3 24 28 28 25 21 20 20 19 17 15 13 11 9 7 6 5 5 5 5 6 5 3 3 3 3 3 4 4 4 3 3
5 6 3 3 9 6 6 7 5 2 4 3 6 9 4 1 5 16 28 29 27 25 23 21 19 17 16 14 13 10 8 6 5 3 3 3 3 4 4 3 2 2 2 2 2 3 3 3 3
1 2 3 4 7 6 6 12 8 7 4 4 4 6 4 4 22 29 28 28 28 24 22 19 17 16 15 13 11 9 6 5 4 3 3 4 4 5 4 4 4 4 3 3 3 3 3 3 3
2 2 2 6 8 7 9 11 4 6 4 4 7 6 4 17 26 25 24 24 25 25 21 18 16 15 14 11 9 7 6 4 5 5 5 6 6 6 5 4 4 5 5 4 4 4 4 4 4
4 2 4 5 6 6 9 17 4 6 5 6 12 6 5 8 27 24 21 24 24 22 21 19 18 15 12 9 7 8 8 8 8 7 8 9 10 8 7 6 5 5 5 5 6 6 5 5 6
2 2 3 5 3 6 8 9 3 8 9 2 7 9 8 11 31 21 28 27 23 19 18 17 14 12 11 11 10 10 10 11 12 12 11 8 7 6 9 7 7 7 8 8 8 7 6 6 6
3 3 5 6 5 3 22 8 12 9 6 5 7 6 12 35 29 29 29 27 24 19 16 16 15 13 11 12 13 11 11 11 10 11 8 6 6 5 9 11 11 13 11 12 12 10 9 8 7
5 4 8 5 6 5 19 5 13 8 10 5 6 12 31 35 27 25 22 19 25 23 20 17 17 13 11 12 12 11 9 8 7 8 8 6 6 7 5 8 9 9 11 9 10 7 8 7 6
4 11 12 9 9 14 18 15 7 7 9 6 14 16 19 26 23 20 19 25 24 22 20 18 17 15 13 12 12 11 9 6 5 7 8 7 6 7 10 8 7 6 6 7 6 9 7 6 6
12 14 11 8 14 18 16 17 13 6 11 12 24 25 19 18 18 22 21 26 26 24 22 20 18 17 14 12 12 10 8 6 5 7 7 6 7 7 6 7 6 6 7 5 4 4 5 5 4
13 16 12 13 13 14 13 19 16 15 16 3 13 21 23 17 18 21 24 25 27 24 22 21 19 18 17 15 12 12 11 8 5 5 8 6 7 7 7 6 4 5 5 7 7 7 5 3 4
5 6 8 12 14 13 13 18 6 11 11 11 18 19 18 19 22 22 25 27 28 25 22 21 19 19 16 16 13 11 9 6 4 6 7 7 6 6 4 3 3 4 4 5 5 5 5 3 3
3 8 6 6 9 8 6 18 10 11 9 8 16 16 16 16 23 22 25 26 30 25 23 21 19 18 16 15 13 11 10 7 5 6 6 6 5 5 4 3 3 5 4 3 4 3 3 3 7
3 3 4 10 7 7 7 13 12 8 7 9 9 15 15 14 21 24 31 30 28 26 24 22 19 18 16 15 12 11 9 7 7 4 4 5 5 4 3 2 4 5 4 4 4 3 5 5 7
5 3 6 4 8 6 5 6 17 8 8 9 10 12 14 14 15 25 32 31 29 28 25 23 20 19 17 15 12 11 9 7 6 4 4 4 4 4 3 1 3 4 4 4 3 4 5 5 4
4 4 6 9 5 9 7 12 22 16 13 13 10 12 13 14 15 25 32 32 29 27 25 23 21 19 17 15 12 10 9 7 5 3 3 3 4 4 3 2 3 3 4 5 4 3 3 4 5
2 5 8 3 4 3 5 9 20 16 16 11 14 13 12 14 12 26 31 33 31 28 26 24 23 19 18 17 14 11 10 8 5 3 3 3 3 3 3 2 2 3 4 5 6 4 3 3 7
12 13 15 10 12 8 4 14 19 17 18 10 13 14 13 9 14 19 26 32 33 32 27 24 22 20 17 15 12 8 12 7 7 3 3 3 2 2 1 1 2 3 3 3 4 5 3 3 6
15 17 13 13 7 11 4 12 14 18 22 6 12 16 19 20 20 16 21 25 32 32 29 25 22 19 17 15 14 13 10 8 7 5 4 3 3 1 2 1 1 2 2 3 4 4 4 4 2
17 15 20 20 11 6 16 5 15 17 13 7 15 15 14 14 13 13 17 22 31 31 27 24 22 21 18 16 14 14 9 8 6 6 4 2 2 2 3 3 2 2 3 3 3 4 4 3 3
11 11 17 18 17 4 17 3 14 12 14 16 18 17 17 16 16 16 18 24 27 29 27 25 22 20 18 15 13 12 9 7 8 6 3 3 3 3 4 4 4 4 4 5 5 6 6 5 5
7 9 5 5 3 4 12 10 4 11 19 13 14 18 19 17 16 15 20 23 26 28 27 25 24 21 18 16 14 11 10 9 8 5 4 4 4 4 5 4 5 6 6 7 8 9 8 8 9
8 6 2 1 1 4 9 10 10 18 14 14 17 19 19 18 16 14 15 20 24 30 29 27 25 22 19 17 14 12 10 8 6 5 6 5 4 6 7 6 6 7 7 8 9 11 11 11 13
8 4 1 3 2 3 3 6 11 4 11 18 20 19 18 17 16 16 16 21 25 30 31 29 26 23 20 17 14 12 10 8 7 6 7 6 5 4 3 4 6 8 9 10 11 13 13 13 14
2 1 3 2 1 2 2 2 3 6 6 11 12 14 16 16 15 15 15 21 24 28 30 28 25 22 20 17 14 12 9 9 8 6 5 4 3 3 4 5 6 6 8 9 11 12 14 14 16
2 2 4 4 4 2 4 4 3 6 5 13 11 12 13 10 11 11 11 21 25 28 25 23 23 21 19 16 14 11 9 8 6 5 5 3 2 3 4 5 6 7 8 9 11 13 14 17 18
2 2 3 2 1 2 3 5 2 6 7 20 15 14 15 14 12 10 9 20 24 23 22 21 20 18 19 15 14 11 10 9 7 5 4 3 2 2 2 4 5 6 7 8 10 12 13 15 17
2 3 4 2 4 1 2 5 3 5 7 7 13 10 11 12 11 10 13 20 22 22 21 21 19 19 16 14 13 11 10 9 7 6 5 2 1 1 1 3 4 6 7 9 11 13 14 16 18